Regional Weather Roundup
Issued by NWS Midland/Odessa, TX

Skip options and go directly to product.
Home | Oldest Version | Previous Version | Current Version | All | Graphics & Text | Save Text | Print | Product List | Glossary On

Skip product version selection by date and time.   
554
ASUS44 KMAF 120910
RWRMAF
MIDLAND AREA WEATHER ROUNDUP
NATIONAL WEATHER SERVICE MIDLAND TX
300 AM CST FRI FEB 12 2016

...IN SOUTHWEST TEXAS AND SOUTHEAST NEW MEXICO...

CITY           SKY/WX    TMP DP  RH WIND       PRES   REMARKS
ALPINE         CLOUDY    37  19  48 SW6       30.32S WCI  33
ANDREWS        FAIR      37  26  63 CALM      30.22R
ARTESIA        CLOUDY    36  18  48 W8        30.23R WCI  29
BIG SPRING     CLOUDY    36  24  63 CALM      30.22R
CARLSBAD       CLOUDY    37  21  52 N5        30.21R WCI  33
DRYDEN           N/A     50  20  30 NW6       30.15S
FORT STOCKTON  CLOUDY    48  25  40 SW13      30.21R
GUAD PASS      CLOUDY    53  12  19 W13       30.30S
HOBBS          CLOUDY    36  23  60 W8        30.23R WCI  29
MARFA          CLOUDY    33  13  43 N9        30.29F WCI  25
MIDLAND AIRPK  PTCLDY    40  28  63 CALM      30.21S
MIDLAND INTL   PTCLDY    35  27  72 N6        30.21R WCI  30
ODESSA         CLOUDY    41  26  55 N6        30.21R WCI  37
PECOS          CLOUDY    33  22  63 W6        30.21R WCI  28
PRESIDIO       FAIR      51  16  24 N10       30.20S
SEMINOLE       CLOUDY    35  25  68 NW7       30.23R WCI  29
SNYDER           N/A     44  30  58 N3        30.20S
WINK           CLOUDY    34  23  64 N8        30.20R WCI  27
$$
...OTHER STATIONS IN TEXAS...

CITY           SKY/WX    TMP DP  RH WIND       PRES   REMARKS
ABILENE        PTCLDY    38  31  76 S5        30.19R WCI  34
AMARILLO       CLOUDY    40  23  50 NW6       30.24R WCI  36
AUSTIN         CLEAR     44  42  93 CALM      30.15S
BROWNSVILLE    CLEAR     59  58  96 S10       30.15F
CORPUS CHRISTI PTCLDY    54  54 100 SE7       30.15F FOG
DALLAS FTW     CLEAR     48  34  58 N9        30.14R
DEL RIO        CLEAR     53  29  39 CALM      30.12S
EL PASO        MOCLDY    43  18  36 N3        30.26R
HOUSTON INT    CLEAR     61  56  83 SW5       30.17R
LUBBOCK        CLOUDY    36  24  62 NW6       30.21R WCI  31
SAN ANGELO     CLOUDY    42  26  53 W8        30.18S WCI  37
SAN ANTONIO    CLEAR     48  43  82 NW5       30.16S
WACO           CLEAR     45  36  70 S5        30.12R
WICHITA FALLS  NOT AVBL
$$
...OTHER LOCATIONS IN NEW MEXICO...

CITY           SKY/WX    TMP DP  RH WIND       PRES   REMARKS
ALAMAGORDO     CLOUDY    37   9  30 CALM      30.28R
ALBUQUERQUE    CLOUDY    40  19  43 E6        30.36R WCI  36
CANNON AFB     CLOUDY    39  17  40 CALM      30.21R
CLOVIS         CLOUDY    37  18  44 CALM      30.23R
HOLLOMAN AFB   CLOUDY    35   7  31 NE7       30.27R WCI  29
ROSWELL        CLOUDY    33  17  51 NW3       30.22R
RUIDOSO          N/A     45   7  21 NW8       30.38R
SANTA FE       CLOUDY    37  19  48 NW9       30.35R WCI  30
TRUTH OR CONSE PTCLDY    46  12  25 NW6       30.31R
TUCUMCARI      CLOUDY    36  17  46 N9        30.25R WCI  29
$$

USA.gov is the U.S. government's official web portal to all federal, state and local government web resources and services.